Location: Newark
(15.4608°S, 41.1635°W)
Time: 14:35:39
(UTC+00:00)

Envisat - Pass Details

Date: 24 June 2021
Orbit: 764 x 766 km, 98.1° (Epoch: 25 July)

Event Time Altitude Azimuth Distance (km) Brightness Sun altitude
Rises 20:56:23 0° 196° (SSW) 3,246 6.2 -8.1°
Reaches altitude 10° 20:59:35 10° 217° (SW) 2,313 5.7 -8.8°
Maximum altitude 21:02:34 16° 253° (WSW) 1,934 5.9 -9.5°
Drops below altitude 10° 21:05:32 10° 289° (WNW) 2,301 7.1 -10.2°
Sets 21:08:43 0° 310° (NW) 3,220 7.8 -10.9°
